Location: Unspecified
(0.0000°N, 0.0000°E)
Time: 18:48:32
(UTC+00:00)

Envisat - Pass Details

Date: 18 October 2021
Orbit: 764 x 766 km, 98.2° (Epoch: 23 October)

Event Time Altitude Azimuth Distance (km) Brightness Sun altitude
Rises 04:53:12 0° 6° (N) 3,212 6.2 -12.8°
Reaches altitude 10° 04:55:30 10° 3° (N) 2,290 5.4 -12.2°
Maximum altitude 05:00:30 64° 282° (WNW) 843 3.0 -11.0°
Drops below altitude 10° 05:05:31 10° 201° (SSW) 2,300 5.4 -9.8°
Sets 05:07:50 0° 198° (SSW) 3,229 6.2 -9.2°
